349P/Lemmon (2010)

Japanese version
Home page
Updated on March 21, 2017

---------------------------------------------------------------------

* Profile

Designation 349P/2010 EY90
Discovery Date March 14, 2010
Magnitude 19.9 mag
Discoverer R. A. Kowalski (Mount Lemmon Survey)

* Orbital Elements

Epoch 2010 Nov. 20.0 TT = JDT 2455520.5
T 2010 Dec. 3.62587 TT                                  MPCW
q   2.4959560            (2000.0)            P               Q
n   0.14604986     Peri.  256.49376     -0.66285085     +0.74738377
a   3.5710995      Node   331.82677     -0.64457111     -0.60032161
e   0.3010679      Incl.    5.49792     -0.38099453     -0.28466027
P   6.75
From 41 observations 2010 Mar. 14-2017 Jan. 27, mean residual 0".5.

* Magnitudes Graph

        m1 = 14.0 + 5 log d + 10.0 log r

---------------------------------------------------------------------

The orbital elements are published on M.P.E.C. 2017-B82.
The magnitudes graphs are made with Comet for Windows.

---------------------------------------------------------------------

Copyright(C) Seiichi Yoshida (comet@aerith.net). All rights reserved.